Location: downtown San Diego
(32.7310°N, 117.1990°W)
Time: 17:59:26
(UTC-07:00)

Intelsat 5-1 Rocket - Pass Details

Date: 19 May 2017
Orbit: 310 x 7719 km, 23.9° (Epoch: 26 May)

Event Time Altitude Azimuth Distance (km) Brightness Sun altitude
Rises 20:35:03 0° 269° (W) 5,223 7.8 -10.3°
Reaches altitude 10° 20:41:12 10° 249° (WSW) 2,923 6.0 -11.4°
Maximum altitude 20:44:28 14° 219° (SW) 1,989 4.7 -12.0°
Drops below altitude 10° 20:46:43 10° 185° (S) 1,847 4.2 -12.4°
Enters shadow 20:47:24 - 175° (S) 1,924 4.2 -12.5°
